Waarnemingen

Advertentie
Mijn weer
Trier-Petrisberg, Duitsland (10609): temperatuur & dauwpunt: 20.05.2018 10:00:00 - 26.05.2018 10:00:00 (CEST)Trier-Petrisberg, Duitsland (10609): temperatuur 5cm & temperatuur -5cm: 20.05.2018 10:00:00 - 26.05.2018 10:00:00 (CEST)Trier-Petrisberg, Duitsland (10609): temperatuur -20cm & temperatuur -100cm: 20.05.2018 10:00:00 - 26.05.2018 10:00:00 (CEST)Trier-Petrisberg, Duitsland (10609): windsnelheid & windstoten: 20.05.2018 10:00:00 - 26.05.2018 10:00:00 (CEST)Trier-Petrisberg, Duitsland (10609): windrichting: 20.05.2018 10:00:00 - 26.05.2018 10:00:00 (CEST)Trier-Petrisberg, Duitsland (10609): luchtdruk: 20.05.2018 10:00:00 - 26.05.2018 10:00:00 (CEST)Trier-Petrisberg, Duitsland (10609): zicht: 20.05.2018 10:00:00 - 26.05.2018 10:00:00 (CEST)Trier-Petrisberg, Duitsland (10609): Zonneschijnduur: 20.05.2018 10:00:00 - 26.05.2018 10:00:00 (CEST)Trier-Petrisberg, Duitsland (10609): neerslag: 20.05.2018 10:00:00 - 26.05.2018 10:00:00 (CEST)
Datum & Tijd tt [°C] td [°C] tt 5cm [°C] tt -5cm [°C] tt -20cm [°C] tt -100cm [°C] ff [km/u] ff [kn] fx [km/u] fx [kn] dd ppp [hPa] vv [km] sd [min] rr [mm]
26.05.2018 10:00:00 20,5 15,2 21,9 20,7 18,8 16,9 11 6 23 12 NNO 1018,8 50 60 0,0
26.05.2018 09:00:00 18,1 14,2 19,1 18,1 18,9 16,9 14 8 23 13 N 1018,8 40 60 0,0
26.05.2018 08:00:00 15,1 13,8 14,4 16,5 19,1 16,9 10 5 23 12 NNO 1019,1 27 18 0,0
26.05.2018 07:00:00 14,2 13,3 13,5 16,3 19,3 16,8 8 5 21 12 NNO 1019,1 21 24 0,0
26.05.2018 06:00:00 13,3 12,7 12,7 16,3 19,6 16,8 9 5 17 9 NNO 1018,7 15 0 0,0
26.05.2018 05:00:00 14,0 13,3 13,1 16,6 19,9 16,8 10 6 18 10 N 1018,6 21 0 0,0
26.05.2018 04:00:00 14,4 13,3 13,1 17,1 20,3 16,8 11 6 21 11 NNO 1018,3 36 0 0,0
26.05.2018 03:00:00 15,0 13,3 13,6 17,7 20,6 16,7 11 6 18 10 NNO 1018,5 43 0 0,0
26.05.2018 02:00:00 15,6 13,6 13,8 18,3 21,0 16,7 11 6 19 10 N 1018,8 44 0 0,0
26.05.2018 01:00:00 16,0 13,6 14,3 19,1 21,3 16,7 12 7 19 11 NNO 1018,6 50 0 0,0
26.05.2018 00:00:00 17,8 13,9 15,6 20,0 21,7 16,7 10 5 12 7 N 1018,2 70 0 0,0
25.05.2018 23:00:00 19,3 13,8 16,4 21,2 22,0 16,7 8 5 13 7 NO 1017,7 63 0 0,0
25.05.2018 22:00:00 19,2 14,6 16,9 22,9 22,2 16,7 3 2 10 6 NO 1017,7 70 0 0,0
25.05.2018 21:00:00 21,8 13,6 20,6 25,2 22,3 16,7 6 3 12 7 ONO 1016,9 70 33 0,0
25.05.2018 20:00:00 23,4 12,9 23,9 27,5 22,1 16,7 7 4 14 8 O 1016,4 70 60 0,0
25.05.2018 19:00:00 24,6 9,8 28,2 29,4 21,7 16,7 5 3 13 7 ONO 1016,3 70 60 0,0
25.05.2018 18:00:00 25,3 12,2 27,5 30,3 21,2 16,7 4 2 18 10 Z 1016,6 70 60 0,0
25.05.2018 17:00:00 24,6 9,7 27,8 30,6 20,6 16,7 8 4 20 11 W 1017,0 70 60 0,0
25.05.2018 16:00:00 24,8 11,2 28,4 30,2 19,8 16,7 6 3 12 7 ZZO 1017,1 70 60 0,0
25.05.2018 15:00:00 24,0 11,4 28,2 28,8 19,1 16,7 5 3 13 7 NNW 1017,4 70 60 0,0
25.05.2018 14:00:00 21,8 12,7 25,5 26,9 18,5 16,8 5 3 14 8 N 1017,9 51 60 0,0
25.05.2018 13:00:00 19,7 16,1 22,7 24,3 18,1 16,8 6 3 13 7 N 1018,4 28 51 0,0
25.05.2018 12:00:00 18,0 16,1 19,7 20,8 17,8 16,8 6 3 11 6 NNO 1018,8 14 2 0,0
25.05.2018 11:00:00 15,4 14,4 16,8 18,8 17,7 16,8 4 2 10 6 NO 1019,3 10 0 0,0
25.05.2018 10:00:00 14,5 14,2 15,8 17,9 17,7 16,8 5 3 10 5 NNO 1019,3 3,1 0 0,0
25.05.2018 09:00:00 14,1 13,9 15,1 17,2 17,7 16,8 4 2 7 4 ZW 1019,1 0,5 0 0,0
25.05.2018 08:00:00 13,6 13,6 14,4 16,3 17,8 16,8 5 3 8 4 NO 1018,6 0,7 0 0,0
25.05.2018 07:00:00 12,6 12,5 13,2 16,0 18,0 16,8 4 2 6 4 O 1018,7 0,2 0 0,0
25.05.2018 06:00:00 12,9 12,9 13,3 16,0 18,1 16,8 4 2 10 5 NO 1018,1 0,3 0 0,0
25.05.2018 05:00:00 12,2 12,2 12,7 16,1 18,3 16,8 5 3 5 3 O 1018,3 0,2 0 0,0
25.05.2018 04:00:00 12,9 12,7 13,3 16,4 18,4 16,8 0 0 5 3 N 1018,0 0,2 0 0,0
25.05.2018 03:00:00 13,2 13,2 13,6 16,5 18,6 16,8 3 2 6 3 NO 1018,2 0,2 0 0,0
25.05.2018 02:00:00 13,6 13,5 14,1 16,4 18,8 16,8 3 2 6 3 ZW 1018,2 0,1 0 0,0
25.05.2018 01:00:00 13,1 13,0 13,6 16,3 19,1 16,8 2 1 7 4 W 1018,3 0,2 0 0,0
25.05.2018 00:00:00 14,0 13,9 12,5 16,9 19,4 16,8 4 2 12 7 NO 1017,9 6 0 0,0
24.05.2018 23:00:00 14,5 14,2 14,1 17,7 19,6 16,8 9 5 13 7 N 1018,0 6 0 0,0
24.05.2018 22:00:00 14,9 14,6 14,7 18,6 19,8 16,8 7 4 11 6 NW 1017,5 9 0 0,4
24.05.2018 21:00:00 15,3 14,4 15,5 19,3 19,9 16,8 6 4 10 5 ONO 1017,3 35 0 2,5
24.05.2018 20:00:00 15,8 15,0 16,1 20,3 20,0 16,8 5 3 10 5 OZO 1017,2 6 0 0,3
24.05.2018 19:00:00 16,5 14,2 16,5 22,0 19,9 16,8 5 3 34 18 WZW 1016,8 70 7 0,0
24.05.2018 18:00:00 20,0 17,1 20,6 22,2 19,9 16,8 6 4 13 7 ONO 1015,9 26 11 0,2
24.05.2018 17:00:00 18,8 17,3 18,9 21,9 19,8 16,8 6 4 11 6 O 1016,1 12 2 0,3
24.05.2018 16:00:00 18,6 16,5 19,2 21,4 19,8 16,8 6 4 16 8 NNO 1016,4 22 0 2,4
24.05.2018 15:00:00 17,6 16,2 18,2 21,2 19,7 16,7 6 3 13 7 NNO 1016,8 8 0 10,1
24.05.2018 14:00:00 17,6 16,3 18,5 21,6 19,3 16,7 8 5 24 13 NNW 1017,4 20 3 10,9
24.05.2018 13:00:00 19,6 14,5 21,5 23,7 18,9 16,7 4 2 9 5 WNW 1017,5 33 12 0,0
24.05.2018 12:00:00 19,5 14,9 21,4 23,0 18,6 16,7 6 4 12 7 ZW 1017,7 29 20 0,0
24.05.2018 11:00:00 18,0 14,3 21,0 21,8 18,3 16,7 5 3 10 6 W 1018,0 21 52 0,0
24.05.2018 10:00:00 17,2 14,4 19,6 20,0 18,1 16,7 4 2 14 8 NNW 1018,2 12 43 0,0
24.05.2018 09:00:00 14,7 14,0 15,5 17,5 18,2 16,7 5 3 11 6 NNO 1018,6 8 0 0,0
24.05.2018 08:00:00 13,7 13,6 14,4 16,8 18,3 16,7 4 2 8 4 ONO 1018,4 0,3 0 0,0
24.05.2018 07:00:00 13,3 13,2 13,9 16,3 18,4 16,7 4 2 8 4 NO 1018,6 0,2 0 0,0
24.05.2018 06:00:00 13,4 13,3 13,6 16,2 18,6 16,6 5 3 7 4 N 1018,5 0,2 0 0,0
24.05.2018 05:00:00 13,2 13,1 13,4 16,3 18,9 16,6 4 2 14 7 ONO 1018,5 0,2 0 0,0
24.05.2018 04:00:00 13,5 13,4 13,5 16,5 19,1 16,6 6 3 15 8 NO 1018,8 0,1 0 0,0
24.05.2018 03:00:00 14,0 13,8 14,0 16,9 19,3 16,6 9 5 16 8 NNO 1018,7 0,4 0 0,0
24.05.2018 02:00:00 14,2 13,9 14,0 17,4 19,6 16,6 6 4 12 6 N 1018,9 2,8 0 0,0
24.05.2018 01:00:00 14,5 14,2 14,5 17,7 19,8 16,6 9 5 16 9 N 1018,9 4,8 0 0,0
24.05.2018 00:00:00 14,5 13,9 14,4 18,2 20,1 16,6 11 6 14 8 N 1019,1 10 0 0,0
23.05.2018 23:00:00 14,9 14,2 14,8 18,7 20,4 16,6 10 5 23 12 NNO 1019,2 23 0 0,3
23.05.2018 22:00:00 14,9 14,2 14,9 19,4 20,6 16,6 13 7 26 14 NNO 1019,2 7 0 2,3
23.05.2018 21:00:00 15,4 14,0 15,3 20,8 20,8 16,6 6 3 23 12 NO 1018,8 6 0 1,5
23.05.2018 20:00:00 16,3 12,8 15,5 22,9 20,8 16,6 16 9 43 23 NO 1018,4 70 0 1,1
23.05.2018 19:00:00 20,7 13,8 21,7 25,4 20,6 16,6 16 8 25 13 NNO 1017,1 64 18 0,0
23.05.2018 18:00:00 21,2 14,0 24,0 26,1 20,2 16,6 15 8 27 15 NNO 1016,7 61 34 0,0
23.05.2018 17:00:00 22,5 14,9 25,4 27,4 19,7 16,6 11 6 33 18 NNO 1016,6 58 44 0,0
23.05.2018 16:00:00 22,7 14,6 27,8 26,2 19,2 16,6 13 7 24 13 NO 1016,7 52 42 0,0
23.05.2018 15:00:00 20,9 15,0 23,4 24,8 18,9 16,6 11 6 24 13 N 1017,5 36 49 0,0
23.05.2018 14:00:00 18,6 14,9 20,0 21,4 18,7 16,6 8 4 18 10 N 1018,1 28 5 0,3
23.05.2018 13:00:00 17,2 13,6 16,8 20,5 18,6 16,6 11 6 18 10 NO 1018,7 26 0 0,1
23.05.2018 12:00:00 17,6 14,8 18,1 20,9 18,4 16,6 9 5 17 9 NNO 1018,4 21 0 0,0
23.05.2018 11:00:00 16,9 14,4 18,0 19,5 18,3 16,5 7 4 13 7 NNO 1018,1 19 3 0,0
23.05.2018 10:00:00 15,1 13,9 15,6 17,9 18,4 16,5 4 2 11 6 NO 1018,1 13 0 0,0
23.05.2018 09:00:00 14,5 13,9 15,2 17,0 18,5 16,5 7 4 13 7 NNO 1017,7 11 0 0,2
23.05.2018 08:00:00 13,7 13,3 13,9 16,6 18,7 16,5 6 3 12 7 N 1017,4 8 0 0,1
23.05.2018 07:00:00 13,2 12,8 13,4 16,5 18,9 16,5 8 4 11 6 N 1016,8 7 0 0,1
23.05.2018 06:00:00 13,1 12,8 13,1 16,7 19,1 16,5 7 4 11 6 N 1016,5 7 0 0,2
23.05.2018 05:00:00 13,3 13,0 13,4 16,9 19,3 16,4 6 4 10 6 NNO 1016,1 8 0 0,0
23.05.2018 04:00:00 13,6 13,1 13,6 17,2 19,5 16,4 7 4 12 7 NO 1015,9 16 0 0,0
23.05.2018 03:00:00 13,8 13,4 13,8 17,4 19,8 16,4 7 4 10 6 NNO 1015,6 12 0 0,0
23.05.2018 02:00:00 13,8 13,4 13,8 17,6 20,1 16,4 8 5 12 7 N 1015,7 12 0 0,0
23.05.2018 01:00:00 13,7 13,3 13,1 18,0 20,4 16,3 8 4 13 7 N 1015,4 8 0 0,0
23.05.2018 00:00:00 14,3 13,8 13,6 18,8 20,7 16,3 8 4 16 8 N 1014,9 14 0 0,0
22.05.2018 23:00:00 15,2 14,5 15,1 19,6 21,0 16,3 12 6 16 9 NNO 1014,8 15 0 0,1
22.05.2018 22:00:00 14,8 14,0 14,9 20,3 21,3 16,3 5 3 11 6 O 1014,3 24 0 0,0
22.05.2018 21:00:00 15,7 14,7 15,5 21,3 21,6 16,3 8 4 24 13 NNO 1013,7 28 0 0,0
22.05.2018 20:00:00 15,8 13,3 15,1 23,2 21,7 16,3 16 9 23 13 N 1013,3 63 0 0,8
22.05.2018 19:00:00 18,9 11,9 19,2 25,9 21,6 16,3 12 6 33 18 NO 1013,0 70 6 0,0
22.05.2018 18:00:00 19,8 11,9 22,8 28,5 21,3 16,3 19 11 36 19 NO 1012,0 70 33 0,0
22.05.2018 17:00:00 21,8 12,2 24,1 29,2 20,9 16,3 23 12 40 22 NNO 1011,1 70 29 0,0
22.05.2018 16:00:00 23,6 9,8 26,5 29,4 20,3 16,3 7 4 25 14 ZW 1011,0 70 33 0,0
22.05.2018 15:00:00 23,6 11,3 29,5 29,3 19,6 16,3 8 5 19 10 W 1011,2 70 46 0,0
22.05.2018 14:00:00 23,6 11,2 29,6 28,4 18,9 16,3 10 5 22 12 W 1011,2 70 56 0,0
22.05.2018 13:00:00 22,3 10,1 25,0 26,3 18,3 16,3 9 5 14 7 ZW 1011,5 70 42 0,0
22.05.2018 12:00:00 21,4 11,7 26,7 23,8 17,8 16,3 3 2 9 5 WNW 1011,9 68 58 0,0
22.05.2018 11:00:00 18,8 12,4 23,0 21,2 17,6 16,3 4 2 9 5 W 1012,4 54 59 0,0
22.05.2018 10:00:00 15,9 12,0 18,6 17,9 17,5 16,3 4 2 8 4 NNW 1012,8 41 23 0,0
22.05.2018 09:00:00 12,8 11,7 13,6 16,0 17,6 16,3 2 1 4 2 NW 1012,9 27 0 0,0
22.05.2018 08:00:00 11,8 11,0 12,2 15,0 17,8 16,2 0 0 6 3 N 1012,9 20 1 0,0
22.05.2018 07:00:00 11,2 10,8 10,4 14,5 18,1 16,2 5 3 11 6 NO 1012,6 17 25 0,0
22.05.2018 06:00:00 11,5 11,1 10,0 14,8 18,4 16,2 6 3 10 5 N 1012,3 19 0 0,0
22.05.2018 05:00:00 11,7 11,3 9,7 15,3 18,7 16,2 2 1 10 6 NNW 1012,3 20 0 0,0
22.05.2018 04:00:00 12,5 12,0 10,5 15,9 18,9 16,2 3 2 6 4 NNO 1012,2 16 0 0,0
22.05.2018 03:00:00 13,1 12,3 12,3 16,6 19,2 16,2 3 1 6 4 W 1012,0 27 0 0,0
22.05.2018 02:00:00 12,4 11,0 11,8 16,9 19,5 16,1 5 3 8 4 O 1012,2 35 0 0,0
22.05.2018 01:00:00 13,9 12,4 12,5 17,6 19,8 16,1 6 4 10 5 NNO 1012,4 42 0 0,0
22.05.2018 00:00:00 14,7 12,8 12,7 18,3 20,1 16,1 5 3 6 3 ONO 1012,5 42 0 0,0
21.05.2018 23:00:00 15,5 12,1 13,3 19,3 20,4 16,1 4 2 8 4 O 1012,4 60 0 0,0
21.05.2018 22:00:00 16,9 12,4 14,6 20,8 20,6 16,1 6 4 14 8 NNO 1012,0 66 0 0,0
21.05.2018 21:00:00 18,5 12,0 17,6 22,6 20,6 16,1 8 4 21 11 N 1011,6 70 16 0,0
21.05.2018 20:00:00 21,2 11,8 22,5 24,3 20,5 16,1 14 8 23 13 N 1011,3 70 35 0,0
21.05.2018 19:00:00 22,4 11,4 25,2 24,8 20,4 16,1 10 5 16 9 NNW 1011,1 70 23 0,0
21.05.2018 18:00:00 22,3 10,9 23,3 26,1 20,1 16,2 3 1 18 10 NW 1011,3 70 13 0,0
21.05.2018 17:00:00 23,6 11,5 28,2 27,0 19,6 16,2 8 5 18 10 NNO 1011,6 70 39 0,0
21.05.2018 16:00:00 23,7 9,1 28,4 27,3 19,0 16,2 8 5 16 8 Z 1012,0 70 32 0,0
21.05.2018 15:00:00 22,9 10,2 27,0 26,7 18,5 16,2 5 3 16 9 O 1012,5 70 42 0,0
21.05.2018 14:00:00 21,6 10,5 24,8 25,1 17,9 16,2 11 6 18 10 NO 1012,9 70 28 0,0
21.05.2018 13:00:00 22,8 11,1 27,8 24,9 17,3 16,2 11 6 21 11 Z 1013,2 70 55 0,0
21.05.2018 12:00:00 21,3 10,0 25,9 22,5 16,8 16,3 9 5 23 12 ZO 1013,6 70 60 0,0
21.05.2018 11:00:00 19,7 10,0 21,5 19,8 16,5 16,3 16 9 28 15 NO 1014,0 70 60 0,0
21.05.2018 10:00:00 17,4 10,4 17,7 17,4 16,4 16,3 16 9 25 14 NNO 1014,5 70 60 0,0
21.05.2018 09:00:00 15,0 10,0 14,9 15,1 16,5 16,3 16 9 30 16 NNO 1015,0 55 60 0,0
21.05.2018 08:00:00 13,1 10,0 11,8 13,9 16,6 16,3 16 9 26 14 NNO 1015,4 54 59 0,0
21.05.2018 07:00:00 11,7 10,4 11,1 13,9 16,8 16,3 16 8 23 13 N 1015,8 37 40 0,0
21.05.2018 06:00:00 11,3 10,6 10,7 13,9 17,0 16,3 14 7 26 14 NNO 1015,9 30 0 0,0
21.05.2018 05:00:00 11,5 11,0 11,1 14,3 17,1 16,3 16 9 24 13 NNO 1016,1 17 0 0,0
21.05.2018 04:00:00 11,9 11,0 11,5 14,7 17,3 16,3 12 6 21 12 NNO 1016,6 30 0 0,3
21.05.2018 03:00:00 12,0 11,4 11,9 14,9 17,5 16,3 7 4 23 12 NNW 1017,5 17 0 0,1
21.05.2018 02:00:00 12,4 11,2 12,1 15,0 17,7 16,3 19 10 31 17 NNO 1017,6 30 0 1,2
21.05.2018 01:00:00 12,7 10,9 12,4 15,2 17,9 16,3 18 10 32 18 NNO 1018,0 47 0 0,0
21.05.2018 00:00:00 13,7 9,8 12,6 15,5 18,1 16,3 23 12 37 20 NNO 1017,9 70 0 0,1
20.05.2018 23:00:00 13,7 10,2 12,4 15,8 18,3 16,3 8 4 48 26 NO 1019,0 70 0 0,2
20.05.2018 22:00:00 14,2 9,5 13,2 16,4 18,5 16,3 25 14 37 20 NO 1018,5 48 0 0,0
20.05.2018 21:00:00 13,9 10,1 13,0 17,1 18,7 16,3 22 12 33 18 NNO 1018,2 70 0 0,0
20.05.2018 20:00:00 14,0 10,6 13,6 18,2 18,8 16,3 19 10 30 16 NNO 1018,6 66 6 0,0
20.05.2018 19:00:00 14,5 11,7 14,5 19,0 18,9 16,3 16 8 29 16 NNO 1018,7 54 4 0,0
20.05.2018 18:00:00 14,3 11,9 14,5 18,9 19,0 16,3 18 10 29 16 NNO 1019,4 41 1 0,4
20.05.2018 17:00:00 13,9 11,6 13,9 19,3 19,1 16,3 14 8 35 19 ONO 1020,3 18 0 1,2
20.05.2018 16:00:00 16,5 9,2 15,2 21,5 18,9 16,3 19 11 48 26 O 1020,1 23 2 0,0
20.05.2018 15:00:00 19,1 8,3 20,7 22,5 18,7 16,3 16 8 35 19 O 1019,3 70 3 0,0
20.05.2018 14:00:00 19,0 11,7 19,2 22,7 18,4 16,3 17 9 26 14 NNO 1019,7 42 7 0,5
20.05.2018 13:00:00 19,2 10,3 21,7 23,8 18,0 16,3 13 7 27 14 NNO 1020,0 40 20 0,0
20.05.2018 12:00:00 18,4 9,8 21,3 22,7 17,5 16,3 14 7 26 14 NNO 1020,4 33 54 0,0
20.05.2018 11:00:00 16,9 9,3 20,6 19,8 17,3 16,3 11 6 25 14 N 1020,8 27 60 0,0
20.05.2018 10:00:00 14,5 8,0 17,6 17,1 17,3 16,3 14 7 31 17 NNO 1021,3 21 60 0,0

tt = temperatuur
td = dauwpunt
tt 5cm = temperatuur 5cm
tt -5cm = temperatuur -5cm
tt -20cm = temperatuur -20cm
tt -100cm = temperatuur -100cm
ff = windsnelheid
fx = windstoten
dd = windrichting
ppp = luchtdruk
vv = zicht
sd = Zonneschijnduur
rr = neerslag

Weerstations in de omgeving